W1MJC Weather Reports


time (UTC)temp
C
wind
direction
speed
KPH
gust
KPH
rain 1hr
cm
rain 24hr
cm
rain mn
cm
humidity
%
barometer
mb
20260506144521 10 335 6.4 12.9 0.00 0.00 0.00 64 1009.8
20260506143519 8 327 6.4 9.7 0.00 0.00 0.00 66 1009.7
20260506142517 8 294 4.8 8.0 0.00 0.00 0.00 67 1009.7
20260506141516 8 18 9.7 12.9 0.00 0.00 0.00 65 1009.5
20260506140532 9 35 9.7 16.1 0.00 0.00 0.00 64 1009.3
20260506135518 8 337 8.0 9.7 0.00 0.00 0.00 68 1009.2
20260506134522 8 26 8.0 11.3 0.00 0.00 0.00 68 1009.2
20260506133547 8 12 8.0 12.9 0.00 0.00 0.00 69 1009.2
20260506132531 8 41 11.3 16.1 0.00 0.00 0.00 71 1009.1
20260506131517 7 311 8.0 12.9 0.00 0.00 0.00 73 1008.9
20260506130541 7 286 4.8 8.0 0.00 0.00 0.00 73 1008.8
20260506125525 7 337 6.4 9.7 0.00 0.00 0.00 72 1008.8
20260506124529 7 317 6.4 9.7 0.00 0.00 0.00 70 1008.7
20260506123516 7 285 8.0 11.3 0.00 0.00 0.00 68 1008.5
20260506122520 7 292 6.4 9.7 0.00 0.00 0.00 67 1008.4
20260506121524 7 281 4.8 8.0 0.00 0.00 0.00 67 1008.3
20260506120528 7 281 3.2 6.4 0.00 0.00 0.00 68 1008.1
20260506115532 6 272 4.8 6.4 0.00 0.00 0.00 69 1007.8
20260506114518 6 270 3.2 6.4 0.00 0.00 0.00 70 1007.8
20260506113523 6 262 1.6 3.2 0.00 0.00 0.00 71 1007.8
20260506112527 6 275 1.6 4.8 0.00 0.00 0.00 72 1007.6
20260506111531 5 270 1.6 3.2 0.00 0.00 0.00 75 1007.2
20260506110517 3 0.0 0.0 0.00 0.00 0.00 79 1007.5
20260506105521 3 0.0 0.0 0.00 0.00 0.00 81 1007.2
20260506104525 3 0.0 0.0 0.00 0.00 0.00 87 1007.2
20260506103530 3 0.0 0.0 0.00 0.00 0.00 82 1007.1
20260506102516 3 0.0 0.0 0.00 0.00 0.00 84 1007.0
20260506101520 3 0.0 0.0 0.00 0.00 0.00 84 1007.2
20260506100524 4 0.0 0.0 0.00 0.00 0.00 77 1006.8
20260506095522 4 0.0 0.0 0.00 0.00 0.00 76 1006.6
20260506094520 5 0.0 0.0 0.00 0.00 0.00 74 1006.6
20260506093519 5 0.0 0.0 0.00 0.00 0.00 71 1006.5
20260506092516 6 0.0 0.0 0.00 0.00 0.00 69 1006.2
20260506091527 6 270 1.6 3.2 0.00 0.00 0.00 66 1006.1
20260506090533 6 0.0 0.0 0.00 0.00 0.00 67 1006.2
20260506085517 6 268 3.2 6.4 0.00 0.00 0.00 67 1006.0
20260506084521 6 284 3.2 4.8 0.00 0.00 0.00 67 1006.1
20260506083525 6 282 3.2 4.8 0.00 0.00 0.00 66 1006.1
20260506082529 6 287 3.2 4.8 0.00 0.00 0.00 66 1006.2
20260506081515 6 278 3.2 4.8 0.00 0.00 0.00 65 1006.3
20260506080520 6 277 1.6 4.8 0.00 0.00 0.00 66 1006.3
20260506072519 7 0.0 0.0 0.00 0.00 0.00 66 1006.3
20260506071523 7 270 1.6 4.8 0.00 0.00 0.00 63 1006.1
20260506070528 7 270 1.6 4.8 0.00 0.00 0.00 63 1006.1
20260506061530 7 248 0.0 3.2 0.00 0.00 0.00 65 1006.3
20260506060516 7 0.0 0.0 0.00 0.00 0.00 66 1006.4
20260506050524 7 0.0 0.0 0.00 0.00 0.00 67 1005.9
20260506044526 7 0.0 0.0 0.00 0.00 0.00 69 1006.1
20260506043518 7 270 0.0 3.2 0.00 0.00 0.00 69 1006.1
20260506042523 7 0.0 0.0 0.00 0.00 0.00 70 1006.1
20260506041521 7 0.0 0.0 0.00 0.00 0.00 70 1005.8